BEIDOU-2 IGSO-1 (C06)

Last updated on Sat Aug 15 2026 00:03:26 GMT+0000 (Coordinated Universal Time)

1 36828U 10036A 26225.69047828 -.00000151 00000+0 00000+0 0 9994 2 36828 54.3068 162.4410 0058308 224.6348 289.1869 1.00255221 58673
UTC large
Height (km)
Speed (km/s)
/
Latitude / Longitude
Inclination (degrees)
Orbital Period (minutes)
Azimuth
Elevation
Range (km)
Doppler Factor

Next 0 passes for location: London (51.5072 / 0.1276)

No passes found over London.
BEIDOU-2 IGSO-1 (C06)